Regional Weather Roundup
Issued by NWS

Home | Current Version | Previous Version | Graphics & Text | Print | Product List | Glossary On
Versions: 1 2 3 4 5 6 7 8 9 10 11 12 13 14 15 16 17 18 19 20 21 22 23 24 25 26 27 28 29 30 31 32 33 34 35 36 37 38 39 40 41 42 43 44 45 46 47 48 49 50
000
ASUS43 KBIS 280520
RWRND

NORTH DAKOTA REGIONAL WEATHER ROUNDUP
NATIONAL WEATHER SERVICE BISMARCK ND
1100 PM CST THU NOV 27 2014

NOTE: "FAIR" INDICATES FEW OR NO CLOUDS BELOW 12,000 FEET WITH NO
SIGNIFICANT WEATHER AND/OR OBSTRUCTIONS TO VISIBILITY.


NDZ001>003-009>011-017-280600-
NORTHWEST NORTH DAKOTA

CITY           SKY/WX    TMP DP  RH WIND       PRES   REMARKS
WILLISTON      CLOUDY    15  11  83 CALM      29.83R
MINOT          CLOUDY    10   5  80 E13       29.91S WCI  -5
MINOT AFB      CLOUDY    10   7  85 SE14      29.92S WCI  -5
$$

NDZ018>021-031>035-040>046-280600-
SOUTHWEST NORTH DAKOTA

CITY           SKY/WX    TMP DP  RH WIND       PRES   REMARKS
BISMARCK       CLOUDY    12   8  84 E9        29.91F WCI   0
DICKINSON      PTCLDY    23  18  81 SE3       29.73F
GARRISON         N/A     11   8  88 SE12      29.87F WCI  -3
HETTINGER ARPT PTCLDY    21  18  88 SE3       29.78F
$$

NDZ004>008-012>016-024-026-027-054-280600-
NORTHEAST NORTH DAKOTA

CITY           SKY/WX    TMP DP  RH WIND       PRES   REMARKS
GRAND FORKS    CLOUDY     8   3  80 S9        30.16R WCI  -5
GRND FRKS AFB  FLURRIES   9   3  78 S9        30.14F WCI  -5
DEVILS LAKE    CLOUDY     9  -2  61 SE12      29.98F WCI  -6
$$

NDZ022-023-025-028>030-036>039-047>053-280600-
SOUTHEAST NORTH DAKOTA

CITY           SKY/WX    TMP DP  RH WIND       PRES   REMARKS
FARGO          LGT SNOW  11   5  77 SE14      30.11F WCI  -5
JAMESTOWN      CLOUDY     6   2  83 SE14      29.99F WCI -11
$$



USA.gov is the U.S. government's official web portal to all federal, state and local government web resources and services.